Location: Davidschlag
(48.4333°N, 14.2833°E)
Time: 01:29:20
(UTC+00:00)

USA 186 - Pass Details

Date: 27 February 2020
Orbit: 266 x 454 km, 96.9° (Epoch: 31 March)

Event Time Altitude Azimuth Distance (km) Brightness Sun altitude
Exits shadow 19:05:37 24° 300° (WNW) 790 3.8 -24.3°
Drops below altitude 10° 19:07:17 10° 328° (NNW) 1,346 4.9 -24.6°
Sets 19:09:27 0° 339° (NNW) 2,241 5.9 -24.9°
